This is the latest recevied weather packets stored in our database for station/object KI5RAB. If no packets are shown the sender has not sent any weather packets the latest 10 day(s).
| Time | Temp. | Humidity | Pressure | Rain* | Wind** | Luminosity | Snow |
|---|---|---|---|---|---|---|---|
| 1778188846 | 20.56° C | 66% | 1018.9 hPa | 0 mm | - | 71 W/m² | - |
| 1778188542 | 20.56° C | 66% | 1018.8 hPa | 0 mm | - | 87 W/m² | - |
| 1778188238 | 21.11° C | 65% | 1018.9 hPa | 0 mm | - | 83 W/m² | - |
| 1778187936 | 21.67° C | 65% | 1019 hPa | 0 mm | - | 171 W/m² | - |
| 1778187632 | 21.11° C | 67% | 1018.6 hPa | 0 mm | - | 204 W/m² | - |
| 1778187329 | 21.11° C | 66% | 1018.8 hPa | 0 mm | - | 163 W/m² | - |
| 1778187025 | 21.11° C | 67% | 1018.6 hPa | 0 mm | - | 201 W/m² | - |
| 1778186721 | 20.56° C | 68% | 1018.3 hPa | 0 mm | - | 228 W/m² | - |
| 1778186419 | 20.56° C | 69% | 1018.6 hPa | 0 mm | - | 226 W/m² | - |
| 1778186117 | 20° C | 68% | 1018.7 hPa | 0 mm | - | 261 W/m² | - |
| 1778185814 | 20.56° C | 68% | 1018.8 hPa | 0 mm | - | 257 W/m² | - |
| 1778185510 | 20.56° C | 68% | 1019 hPa | 0 mm | - | 246 W/m² | - |
| 1778185206 | 20.56° C | 67% | 1018.7 hPa | 0 mm | - | 353 W/m² | - |
| 1778184902 | 21.11° C | 68% | 1018.3 hPa | 0 mm | - | 435 W/m² | - |
| 1778184598 | 20.56° C | 69% | 1018.3 hPa | 0 mm | - | 585 W/m² | - |
| 1778184294 | 19.44° C | 74% | 1018.3 hPa | 0 mm | - | 792 W/m² | - |
| 1778183989 | 19.44° C | 75% | 1018.9 hPa | 0 mm | - | 269 W/m² | - |
| 1778183687 | 18.89° C | 75% | 1019.3 hPa | 0 mm | - | 216 W/m² | - |
| 1778183385 | 18.89° C | 76% | 1019.5 hPa | 0 mm | - | 187 W/m² | - |
| 1778183081 | 18.89° C | 76% | 1018.8 hPa | 0 mm | - | 200 W/m² | - |
| 1778182777 | 18.89° C | 76% | 1019 hPa | 0 mm | - | 183 W/m² | - |
| 1778182474 | 19.44° C | 77% | 1018.6 hPa | 0 mm | - | 196 W/m² | - |
| 1778182171 | 19.44° C | 76% | 1019.6 hPa | 0 mm | - | 239 W/m² | - |
| 1778181867 | 18.89° C | 76% | 1019.3 hPa | 0 mm | - | 270 W/m² | - |
| 1778181564 | 18.89° C | 76% | 1019.1 hPa | 0 mm | - | 302 W/m² | - |
* Rain latest hour (hover to see other rain measurements)
** Current wind speed in m/s (hover to see current wind gust speed)